Terminal Aerodrome Forecast
Issued by NWS Columbia, SC

Home | Current Version | Previous Version | Text Only | Print | Product List | Glossary On
Versions: 1 2 3 4 5 6 7 8 9 10 11 12 13 14 15 16 17 18 19 20 21 22 23 24 25 26 27 28 29 30 31 32 33 34 35 36 37 38 39 40 41 42 43 44 45 46
000
FTUS42 KCAE 300854 AAA
TAFAGS
TAF AMD
KAGS 300854Z 3009/0106 23006KT P6SM SCT250
     FM301500 25011KT P6SM FEW050
     FM302100 22012G20KT P6SM VCTS SCT050CB BKN100
     FM010000 22008KT P6SM BKN050=

USA.gov is the U.S. government's official web portal to all federal, state and local government web resources and services.